Lapse_Rate
1.1 0.2 -0.2 0.1 -0.0 -0.1 0.3 0.9 1.7 2.6 4.1 5.0 5.9 6.6 6.4 6.4 6.5 7.2 7.0 7.1 6.6 6.2
1.3 1.1 0.5 0.5 0.1 -0.2 0.1 1.0 1.2 1.7 2.2 4.0 6.5 6.8 6.9 6.5 6.4 6.6 6.6 6.0 5.0 5.4
1.4 1.1 0.8 0.4 0.4 0.5 0.6 0.9 1.2 1.5 2.2 3.1 4.8 7.4 7.5 7.3 7.3 7.1 7.0 5.9 5.3 5.3
1.2 1.4 1.3 0.9 0.9 0.7 0.9 1.4 1.5 1.7 1.8 2.7 3.5 3.9 3.8 4.2 5.3 6.8 7.4 6.9 6.9 6.6
1.1 1.1 1.0 0.9 1.1 1.2 1.0 1.5 1.9 2.3 2.8 3.6 4.1 4.6 5.1 4.8 5.2 5.9 6.3 5.1 6.5 6.8
1.2 1.1 0.9 0.9 1.1 1.3 1.2 1.1 1.2 1.9 2.1 2.5 2.9 3.1 3.4 3.4 4.0 5.4 3.8 4.2 4.8 5.4
1.0 1.1 0.9 1.1 1.3 1.5 1.7 1.3 1.1 1.1 1.4 1.8 2.0 2.3 2.5 2.3 2.0 2.2 2.7 2.6 3.0 3.7
1.1 0.9 0.8 1.0 1.3 1.5 1.6 1.7 1.3 1.1 1.2 1.3 1.9 3.0 1.9 1.4 1.1 1.2 2.2 2.5 2.8 4.3
1.6 1.3 0.9 0.8 1.0 1.0 1.0 1.1 1.4 1.3 1.4 1.2 2.4 3.4 3.6 3.4 1.6 2.0 1.5 2.2 3.5 6.7
2.2 1.8 1.3 1.2 1.1 1.0 1.2 1.3 1.0 1.1 1.1 1.0 1.2 3.3 3.9 3.9 1.9 1.9 1.9 2.3 3.8 6.2
1.8 1.5 1.3 1.1 0.9 0.9 1.1 1.2 1.2 1.1 1.3 0.9 1.5 3.2 3.6 3.8 1.7 1.1 1.5 2.4 3.7 4.2
2.0 1.4 1.2 0.8 0.9 0.6 0.8 0.8 1.0 1.1 0.6 0.2 0.3 2.5 3.0 2.7 1.2 0.9 1.0 1.9 2.8 3.7
1.9 1.6 1.3 1.1 0.5 0.0 0.1 0.5 0.4 -0.1 -0.3 0.7 0.6 2.2 3.3 3.1 1.4 0.9 1.0 1.1 1.9 3.7
1.4 1.4 1.2 0.8 0.4 0.1 -0.1 -0.2 -0.7 -0.8 -1.0 -0.8 -0.2 -0.0 2.5 3.0 1.5 0.9 0.5 0.5 0.8 1.5
Wind_Speed
7 4 4 5 4 4 3 3 4 5 5 5 5 6 6 5 5 6 5 7 6 6
6 6 5 7 5 4 5 4 5 5 6 6 7 7 7 5 6 6 6 6 5 5
6 6 6 5 6 6 6 5 6 5 5 6 6 7 6 6 6 8 7 5 4 5
6 6 6 5 6 6 5 6 6 6 6 5 6 7 5 5 6 7 6 6 7 8
6 6 6 6 6 6 6 6 6 6 6 6 6 5 7 9 8 9 9 6 8 9
6 6 6 6 6 6 5 6 5 5 5 5 5 5 6 5 6 6 4 7 9 10
6 6 6 6 6 6 5 6 5 5 5 5 5 5 5 3 4 5 5 6 6 7
6 6 6 6 6 6 5 5 6 6 6 6 5 4 3 3 4 5 6 6 8 9
6 6 6 6 6 6 6 6 5 6 5 5 4 9 11 9 3 5 5 7 9 8
6 6 7 6 6 6 6 5 6 6 6 6 5 10 12 12 3 4 6 8 9 7
6 7 6 6 7 6 5 6 6 6 6 6 6 11 11 12 5 5 6 7 9 6
6 7 7 7 7 6 5 5 7 5 7 7 7 12 12 10 5 5 6 7 7 5
7 6 7 8 7 5 5 7 5 6 6 9 8 11 13 10 3 5 5 5 5 11
7 7 7 7 4 5 6 6 6 7 6 8 9 9 15 16 6 5 5 5 5 4
Wind_Direction
226 233 246 250 260 261 253 259 273 278 289 284 285 284 288 292 292 298 309 291 287 276
228 241 246 255 260 263 266 250 249 271 276 276 275 273 272 273 284 296 302 298 284 283
225 234 241 255 264 270 276 266 263 270 280 296 297 295 295 287 282 290 294 281 307 304
233 233 244 247 260 265 274 272 269 263 260 263 283 296 302 309 307 311 307 312 312 312
232 233 241 248 256 262 266 279 278 281 281 281 279 281 298 302 306 298 306 321 322 316
243 248 255 256 259 262 263 271 282 288 289 289 292 300 299 288 293 284 321 323 314 312
253 256 261 263 261 264 271 276 278 277 276 277 283 285 287 301 322 320 308 284 283 286
250 253 259 260 258 262 265 264 268 275 276 278 281 273 248 264 284 291 290 285 279 272
253 258 254 256 255 255 255 258 262 265 264 270 272 273 282 287 258 278 277 288 289 293
254 255 252 250 252 254 254 252 256 258 262 265 266 279 285 287 260 275 282 280 289 295
265 260 261 254 251 254 244 248 255 255 256 261 263 272 279 278 256 261 274 276 283 276
281 267 262 256 252 246 240 243 245 236 244 246 250 258 265 269 252 250 263 275 274 265
300 276 269 262 257 242 229 246 233 246 238 253 265 263 268 265 240 251 259 264 268 284
289 282 270 273 250 251 247 250 243 245 239 234 236 245 247 243 229 231 243 248 257 260